Jackson Hawkins Field, MS

3:06 AM CDT on July 21, 2017 (GMT -0500)
Hawkins

Weather History for KHKS - September, 2013

Change the Weather History Date:

Sunday, September 22, 2013

  Actual Average (KJAN) Record (KJAN)
Temperature  
Mean Temperature 70 °F -  
Max Temperature 81 °F 85 °F 101 °F (1925)
Min Temperature 60 °F 62 °F 41 °F (1983)
Cooling Degree Days 5    
Growing Degree Days 20 (Base 50)    
Moisture  
Dew Point 55 °F    
Average Humidity 62    
Maximum Humidity 81    
Minimum Humidity 39    
Precipitation  
Precipitation 0.00 in - - ()
Sea Level Pressure  
Sea Level Pressure 29.84 in    
Wind  
Wind Speed 5 mph (NE)    
Max Wind Speed 14 mph    
Max Gust Speed 20 mph    
Visibility 10 miles    
Events      
Averages and records for this station are not official NWS values.
T = Trace of Precipitation, MM = Missing Value Source: NWS Daily Summary

Daily Weather History Graph

Daily Weather History Graph

Search for Another Location

Airport or City:

Trip Planner

Search our weather history database for the weather conditions in past years. The results will help you decide how hot, cold, wet, or windy it might be!

Date:

Astronomy

Sep. 22, 2013 Rise Set
Actual Time 6:49 AM CDT 6:57 PM CDT
Civil Twilight 6:24 AM CDT 7:21 PM CDT
Nautical Twilight 5:56 AM CDT 7:50 PM CDT
Astronomical Twilight 5:27 AM CDT 8:18 PM CDT
Moon 9:01 PM CDT (9/22) 9:56 AM CDT (9/22)
Length of Visible Light 12h 56m
Length of Day
12h 07m
Waning Gibbous, 88% of the Moon is Illuminated
Sep 22
Waning Gibbous
Sep 26
Last Quarter
Oct 4
New
Oct 11
First Quarter
Oct 18
Full

Hourly Weather History & Observations

Time (CDT) Temp. Heat Index Dew Point Humidity Pressure Visibility Wind Dir Wind Speed Gust Speed Precip Events Conditions
12:53 AM 66.0 °F - 57.0 °F 73% 29.83 in 10.0 mi NNE 6.9 mph - N/A   Clear
1:53 AM 64.9 °F - 57.0 °F 75% 29.83 in 10.0 mi NNE 4.6 mph - N/A   Clear
2:53 AM 64.0 °F - 55.9 °F 75% 29.83 in 10.0 mi Variable 4.6 mph - N/A   Clear
3:53 AM 62.1 °F - 55.9 °F 80% 29.83 in 10.0 mi NNE 4.6 mph - N/A   Clear
4:53 AM 62.1 °F - 54.0 °F 75% 29.83 in 10.0 mi NE 5.8 mph - N/A   Clear
5:53 AM 61.0 °F - 53.1 °F 75% 29.83 in 10.0 mi NE 4.6 mph - N/A   Clear
6:53 AM 60.1 °F - 54.0 °F 80% 29.84 in 10.0 mi Variable 4.6 mph - N/A   Clear
7:53 AM 62.1 °F - 55.0 °F 78% 29.86 in 10.0 mi ENE 4.6 mph - N/A   Clear
8:53 AM 66.0 °F - 55.0 °F 68% 29.87 in 10.0 mi Variable 5.8 mph - N/A   Clear
9:53 AM 70.0 °F - 53.1 °F 55% 29.88 in 10.0 mi NE 9.2 mph - N/A   Clear
10:53 AM 73.0 °F - 51.1 °F 46% 29.88 in 10.0 mi ENE 13.8 mph 19.6 mph N/A   Clear
11:53 AM 73.9 °F - 50.0 °F 43% 29.88 in 10.0 mi ENE 8.1 mph 17.3 mph N/A   Clear
12:53 PM 75.9 °F - 52.0 °F 43% 29.86 in 10.0 mi NE 10.4 mph - N/A   Clear
1:53 PM 78.1 °F - 53.1 °F 42% 29.84 in 10.0 mi NE 6.9 mph - N/A   Clear
2:53 PM 79.0 °F - 53.1 °F 40% 29.82 in 10.0 mi NE 5.8 mph - N/A   Clear
3:53 PM 79.0 °F - 53.1 °F 40% 29.80 in 10.0 mi NE 5.8 mph - N/A   Clear
4:53 PM 80.1 °F 79.9 °F 53.1 °F 39% 29.80 in 10.0 mi Variable 4.6 mph - N/A   Clear
5:53 PM 78.1 °F - 53.1 °F 42% 29.80 in 10.0 mi ENE 6.9 mph - N/A   Clear
6:53 PM 75.0 °F - 55.0 °F 50% 29.81 in 10.0 mi NE 3.5 mph - N/A   Clear
7:53 PM 69.1 °F - 57.9 °F 68% 29.83 in 2.5 mi Calm Calm - N/A   Haze
8:03 PM 69.8 °F - 57.2 °F 64% 29.85 in 10.0 mi Calm Calm - N/A   Clear
8:53 PM 66.0 °F - 57.9 °F 75% 29.85 in 10.0 mi Calm Calm - N/A   Clear
9:53 PM 64.9 °F - 57.9 °F 78% 29.85 in 10.0 mi Calm Calm - N/A   Clear
10:53 PM 64.9 °F - 57.0 °F 75% 29.84 in 10.0 mi NNE 3.5 mph - N/A   Clear
11:53 PM 63.0 °F - 57.0 °F 81% 29.84 in 10.0 mi Calm Calm - N/A   Clear